Weather History for Dayton Wright, OH

Change the Weather History Date:

Monday, April 1, 2013

  Actual Average (KFFO) Record (KFFO)
Temperature  
Mean Temperature 40 °F -  
Max Temperature 46 °F 57 °F 75 °F (2003)
Min Temperature 33 °F 35 °F 24 °F (1997)
Degree Days  
Heating Degree Days 26    
Moisture  
Dew Point 25 °F    
Average Humidity 60    
Maximum Humidity 89    
Minimum Humidity 35    
Precipitation  
Precipitation 0.00 in - - ()
Sea Level Pressure  
Sea Level Pressure 29.98 in    
Wind  
Wind Speed 10 mph (NW)    
Max Wind Speed 16 mph    
Max Gust Speed 24 mph    
Visibility 9 miles    
Events Snow    
Averages and records for this station are not official NWS values.
T = Trace of Precipitation, MM = Missing Value Source: NWS Daily Summary

Daily Weather History Graph

Daily Weather History Graph

Search for Another Location

Airport:

Trip Planner

Search our weather history database for the weather conditions in past years. The results will help you decide how hot, cold, wet, or windy it might be!

Date:

Astronomy

Apr. 01, 2013 Rise Set
Actual Time 7:20 AM EDT 8:01 PM EDT
Civil Twilight 6:53 AM EDT 8:28 PM EDT
Nautical Twilight 6:21 AM EDT 9:00 PM EDT
Astronomical Twilight 5:48 AM EDT 9:33 PM EDT
Moon 1:07 AM EDT (4/1) 11:07 AM EDT (4/1)
Length of Visible Light 13h 34m
Length of Day
12h 40m
Waning Gibbous, 67% of the Moon is Illuminated
Apr 1
Waning Gibbous
Apr 3
Last Quarter
Apr 10
New
Apr 18
First Quarter
Apr 25
Full

Hourly Weather History & Observations

Time (EDT) Temp. Windchill Dew Point Humidity Pressure Visibility Wind Dir Wind Speed Gust Speed Precip Events Conditions
12:53 AM 46.9 °F - 39.9 °F 77% 29.78 in 10.0 mi West 6.9 mph - N/A   Clear
1:53 AM 46.0 °F 41.0 °F 39.9 °F 79% 29.80 in 10.0 mi WNW 10.4 mph - N/A   Clear
2:53 AM 45.0 °F 39.7 °F 34.0 °F 65% 29.81 in 10.0 mi NW 10.4 mph - N/A   Clear
3:53 AM 42.1 °F 35.7 °F 32.0 °F 67% 29.82 in 10.0 mi NW 11.5 mph 19.6 mph N/A   Clear
4:53 AM 39.0 °F 31.4 °F 28.9 °F 67% 29.86 in 10.0 mi NW 12.7 mph - N/A   Mostly Cloudy
5:26 AM 39.2 °F 32.5 °F 28.4 °F 65% 29.88 in 10.0 mi NW 10.4 mph - N/A   Overcast
5:53 AM 37.9 °F 30.9 °F 28.0 °F 68% 29.90 in 10.0 mi NW 10.4 mph - N/A   Overcast
6:53 AM 37.9 °F 32.1 °F 28.0 °F 68% 29.92 in 10.0 mi NNW 8.1 mph - N/A   Overcast
7:17 AM 37.4 °F 29.8 °F 28.4 °F 70% 29.92 in 10.0 mi NNW 11.5 mph - N/A   Overcast
7:34 AM 37.4 °F 29.3 °F 26.6 °F 65% 29.94 in 10.0 mi NNW 12.7 mph - N/A   Overcast
7:53 AM 37.0 °F 28.5 °F 27.0 °F 67% 29.97 in 10.0 mi NNW 13.8 mph 19.6 mph N/A   Overcast
8:10 AM 35.6 °F 27.1 °F 26.6 °F 70% 29.97 in 1.5 mi NW 12.7 mph 20.7 mph 0.00 in Snow Light Snow
8:20 AM 35.6 °F 29.2 °F 28.4 °F 75% 29.97 in 1.5 mi NNW 8.1 mph - 0.00 in Snow Light Snow
8:29 AM 33.8 °F 26.4 °F 28.4 °F 81% 29.97 in 2.5 mi NNW 9.2 mph - 0.00 in Snow Light Snow
8:53 AM 34.0 °F 31.0 °F 30.9 °F 89% 29.99 in 5.0 mi West 3.5 mph - 0.00 in Snow Light Snow
9:00 AM 33.8 °F 30.8 °F 30.2 °F 87% 29.97 in 9.0 mi WNW 3.5 mph - 0.00 in   Overcast
9:31 AM 35.6 °F 29.9 °F 30.2 °F 81% 29.98 in 10.0 mi Variable 6.9 mph - 0.00 in   Overcast
9:53 AM 37.0 °F 29.8 °F 28.0 °F 70% 30.00 in 10.0 mi NW 10.4 mph - 0.00 in   Overcast
10:53 AM 37.0 °F 30.4 °F 25.0 °F 62% 30.02 in 10.0 mi NNW 9.2 mph - N/A   Mostly Cloudy
11:53 AM 39.9 °F 32.5 °F 21.9 °F 49% 30.04 in 10.0 mi NNW 12.7 mph 19.6 mph N/A   Mostly Cloudy
12:53 PM 39.9 °F 32.9 °F 21.0 °F 47% 30.05 in 10.0 mi NNW 11.5 mph 19.6 mph N/A   Unknown
1:53 PM 42.1 °F 36.6 °F 19.0 °F 40% 30.05 in 10.0 mi NW 9.2 mph 24.2 mph N/A   Mostly Cloudy
2:53 PM 43.0 °F 35.4 °F 19.9 °F 40% 30.05 in 10.0 mi NW 16.1 mph 21.9 mph N/A   Overcast
3:53 PM 43.0 °F 35.4 °F 18.0 °F 37% 30.05 in 10.0 mi WNW 16.1 mph 20.7 mph N/A   Mostly Cloudy
4:53 PM 42.1 °F 34.2 °F 18.0 °F 38% 30.05 in 10.0 mi WNW 16.1 mph 23.0 mph N/A   Overcast
5:53 PM 42.1 °F 34.9 °F 16.0 °F 35% 30.05 in 10.0 mi NW 13.8 mph - N/A   Mostly Cloudy
6:53 PM 41.0 °F 33.9 °F 17.1 °F 38% 30.06 in 10.0 mi WNW 12.7 mph - N/A   Partly Cloudy
7:53 PM 39.9 °F 35.1 °F 16.0 °F 38% 30.07 in 10.0 mi NW 6.9 mph - N/A   Mostly Cloudy
8:53 PM 39.0 °F 34.0 °F 17.1 °F 41% 30.09 in 10.0 mi NW 6.9 mph - N/A   Scattered Clouds
9:53 PM 37.0 °F 34.5 °F 18.0 °F 46% 30.11 in 10.0 mi NW 3.5 mph - N/A   Partly Cloudy
10:53 PM 35.1 °F 32.2 °F 19.0 °F 52% 30.12 in 10.0 mi NW 3.5 mph - N/A   Clear
11:53 PM 33.1 °F 27.7 °F 19.0 °F 56% 30.13 in 10.0 mi NNW 5.8 mph - N/A   Clear